Voltar ao catálogo

ATLAS 28E DEB

AtivoPO
NORAD 20565·DEBRIS·🇺🇸 United States

Lançado Apr 11, 1990 de Vandenberg Space Force Base

Loading…

Próximas Passagens (próximas 24 horas)

TLE

AtualizadoSource: Space-Track

Época: Sep 14, 2026, 05:26 UTC

1 20565U 90031F   26257.22666231  .00001216  00000-0  12279-3 0  9995
2 20565  89.9138 243.9256 0047579 261.8002  97.7829 14.89679721396879

Acompanhe ATLAS 28E DEB em tempo real com AllMySat

Download on the App Store